Terminal Aerodrome Forecast
Issued by NWS

Home | Current Version | Previous Version | Text Only | Print | Product List | Glossary On
Versions: 1 2 3 4 5 6 7 8 9 10 11 12 13 14 15 16 17 18 19 20 21 22 23 24 25
000
FTUS41 KCAR 260534
TAFFVE
TAF
KFVE 260534Z 2606/2706 30013G22KT P6SM SKC
     FM261900 32005KT P6SM FEW040 SCT200
     FM262300 30005KT P6SM BKN200=

USA.gov is the U.S. government's official web portal to all federal, state and local government web resources and services.